STARLINK-32783, 62606

Orbit data source: Space-Track

STARLINK-32783, 62606 is a payload satellite owned by SpaceX/Seattle (US) in LEO that was launched on Mon, 13 Jan 2025 UTC via an FALCON 9 launch vehicle from the Air Force Eastern Test Range (AFETR). Payload-class satellites include a variety of spacecraft equipped with specific instruments for various scientific and technological missions. These include communications satellites like Starlink; space stations such as the ISS; scientific satellites like the Hubble; Earth observation satellites from companies like Planet Labs, Umbra, and HawkEye 360; GPS; miniature CubeSats for education and research; and military/defense satellites.

Loading next visibility...
Identifier
62606, 2025-008V
Orbit
LEO
Country
Flag of USUS
Related business
Manufacturer
SpaceX/Seattle
Mission
Operational Commercial Communications
Bus & Motor
STARLINK V2M, Unknown motor
Mass
730 kg wet, ~700 kg dry
Launch date (UTC)
2025-01-13 (11 months ago)
Launch vehicle
FALCON 9
Launch site
Air Force Eastern Test Range (AFETR)
Object type
Payload
Rocket body
Debris
Shape & HBR
Box + 2 Pan, 17.7 m
Radar Cross Section
33.884 m², Large (>1 m²)

Expand to show TLE details & history
Last TLE update: 23 hours ago

TLE from 23 hours ago
0 STARLINK-32783
1 62606U 25008V   25349.52899648  .00022058  00000-0  80816-3 0  9992
2 62606  43.0018  33.1703 0001532 257.0547 103.0133 15.27601461 52692
Epoch: 2025-12-15T12:41Z
TLE epoch observation values (Epoch: 2025-12-15T12:41:45.295Z)
Latitude
-0.00008°
Longitude
118.30523°
Altitude
482.997 km
Speed
7.626 km/s
True Right ascension
02h 12m 40s
True Declination
0° 00' 00"
Sunlit
Object was in full shadow at epoch
Visualization orbit readout
Latitude
Unknown
Longitude
Unknown
Altitude
Unknown
Speed
Unknown
Apparent Right ascension
Unknown
Apparent Declination
Unknown
Sunlit
N/A
Visualization observer readout
Local Sidereal Time
10:10:05
Azimuth
Unknown
Elevation
Unknown
Doppler factor
Unknown
Orbital elements
Apogee altitude
485.981 km
Perigee altitude
483.878 km
Semi-major axis
6,863.067 km
Eccentricity
0.00015
Inclination
43.0018°
RAAN
33.1703°
Arg. of periapsis
257.0547°
True anomaly
103.0304°
Mean anomaly
103.0133°
Eccentric anomaly
103.02185°
Mean motion
3.81738 °/min
Orbital period
94.31 mins
BSTAR
0.00080816
Loading maneuver chart data...
Computing Atmospheric mass density...
Loading historical data...
Loading historical data...
Loading historical data...
Loading historical data...
Loading historical data...
Loading historical data...
Loading historical data...

Documentation

Showing up to 5 results
|